{"data":{"norad_id":48061,"intl_designator":"2021-025V","name":"ONEWEB-0163","alt_names":[],"object_type":"PAYLOAD","status":"ACTIVE","operator":null,"country":"UK","launch_date":"2021-03-25","launch_site_code":"VOSTO","launch_vehicle":null,"mission":null,"orbit_class":"UNKNOWN","rcs_meters":null,"size_class":null,"mass_kg":null,"dimensions":null,"purposes":["comms"],"wikipedia_slug":null,"has_3d_model":false,"image_url":null,"decayed_at":null,"tle_current":{"epoch":"2026-09-19T21:18:57.195936Z","epoch_age_seconds":71213,"freshness":"FRESH","line1":"1 48061U 21025V   26262.88816199  .00000040  00000+0  73911-4 0  9995","line2":"2 48061  87.8921 301.3838 0001608  96.8010 263.3302 13.13468181266112","mean_motion":13.13468181,"eccentricity":0.0001608,"inclination_deg":87.8921,"raan_deg":301.3838,"arg_perigee_deg":96.801,"mean_anomaly_deg":263.3302,"bstar":7.3911e-5,"rev_number":26611,"period_min":109.63341334266,"perigee_km":1208.5522696385,"apogee_km":1210.9925413033,"semimajor_km":7587.9094054709,"source":"CELESTRAK","updated_at":"2026-09-20T09:00:44.587944Z"}}}